Flag for Russia Weather past 2 weeks in Kemerovo, Russia

Now
43 °F

Sprinkles. Mostly cloudy.


Feels Like: 37 °F
Forecast: 41 / 55 °F
Wind: 10 mph from Southwest

Location: Kemerovo

Current Time: Sep 23, 2014 at 5:43:35 AM

Latest Report: Sep 23, 2014 at 5:00 AM


Visibility: N/A

Pressure: 30.21 "Hg

Humidity: 76%

Dew point: 36 °F

Location of KemerovoLocation

Historic Weather in Kemerovo — Graph

°F

Kemerovo temperature yesterday

Maximum temperature yesterday: 52 °F (at 2:00 PM)
Minimum temperature yesterday: 30 °F (at 4:00 AM)
Average temperature yesterday: 41 °F

Past Weeks' High & Low Weather Summary

 TemperatureHumidityPressure
High72 °F (Sep 18, 2:30 PM)100% (Sep 10, 7:00 AM)30.24 "Hg (Sep 10, 7:00 AM)
Low28 °F (Sep 16, 6:00 AM)35% (Sep 18, 5:00 PM)29.45 "Hg (Sep 18, 6:30 PM)
Average45 °F83%29.93 "Hg
* Reported Sep 8 4:00 AM — Sep 23 4:30 AM, Kemerovo, Weather by CustomWeather, © 2014

Note: Actual official high and low records may vary slightly from our data, if they occured in-between our weather recording intervals... More about our weather records

Advertising

Kemerovo weather history for previous 24 hours

 ConditionsComfort  
Time TempWeatherWind HumidityBarometerVisibility
4:30 AM
Sep 23
45 °FSprinkles. Mostly cloudy.13 mph71%30.21 "HgN/A
4:00 AM45 °FMostly cloudy.10 mph71%30.21 "HgN/A
3:30 AM45 °FMostly cloudy.13 mph61%30.21 "HgN/A
3:00 AM45 °FMostly cloudy.10 mph61%30.21 "HgN/A
2:30 AM45 °FMostly cloudy.10 mph61%30.21 "HgN/A
2:00 AM45 °FMostly cloudy.10 mph61%30.21 "HgN/A
1:30 AM45 °FMostly cloudy.13 mph57%30.21 "HgN/A
1:00 AM45 °FMostly cloudy.15 mph57%30.21 "HgN/A
12:30 AM45 °FMostly cloudy.10 mph57%30.21 "HgN/A
12:00 AM45 °FClear.13 mph57%30.21 "Hg10 mi
11:30 PM
Sep 22
45 °FClear.10 mph61%30.21 "Hg10 mi
11:00 PM45 °FClear.10 mph61%30.21 "Hg10 mi
10:30 PM45 °FClear.8 mph61%30.21 "Hg10 mi
10:00 PM45 °FClear.10 mph61%30.21 "Hg10 mi
9:30 PM43 °FClear.8 mph66%30.21 "Hg10 mi
9:00 PM43 °FClear.8 mph66%30.21 "Hg10 mi
8:30 PM45 °FClear.10 mph61%30.21 "Hg10 mi
8:00 PM45 °FSunny.10 mph61%30.18 "Hg10 mi
7:30 PM48 °FSunny.8 mph54%30.18 "Hg10 mi
7:00 PM48 °FSunny.10 mph54%30.18 "Hg10 mi
6:30 PM50 °FMore clouds than sun.13 mph40%30.18 "HgN/A
6:00 PM50 °FMore clouds than sun.13 mph40%30.21 "HgN/A
5:30 PM52 °FBroken clouds.10 mph35%30.21 "HgN/A
5:00 PM52 °FBroken clouds.13 mph35%30.21 "HgN/A
4:30 PM52 °FBroken clouds.13 mph47%30.21 "HgN/A
4:00 PM52 °FBroken clouds.15 mph44%30.21 "HgN/A
3:30 PM52 °FBroken clouds.10 mph47%30.21 "HgN/A
3:00 PM52 °FBroken clouds.15 mph47%30.21 "HgN/A
2:30 PM52 °FBroken clouds.10 mph47%30.21 "HgN/A
2:00 PM52 °FBroken clouds.10 mph47%30.24 "HgN/A
1:30 PM48 °FPartly sunny.13 mph50%30.24 "HgN/A
1:00 PM48 °FPartly sunny.10 mph50%30.24 "HgN/A
12:30 PM46 °FPartly sunny.10 mph57%30.24 "HgN/A
12:00 PM46 °FSunny.8 mph57%30.24 "Hg10 mi
11:30 AM45 °FSunny.6 mph66%30.24 "Hg10 mi
11:00 AM45 °FSunny.6 mph66%30.24 "Hg10 mi
10:30 AM39 °FSunny.6 mph81%30.24 "Hg10 mi
10:00 AM39 °FSunny.3 mph81%30.24 "Hg10 mi
9:30 AM34 °FSunny.3 mph87%30.24 "Hg10 mi
9:00 AM34 °FSunny.3 mph87%30.24 "Hg10 mi
8:30 AM32 °FSunny.1 mph87%30.24 "Hg10 mi
8:00 AM32 °FSunny.6 mph87%30.21 "Hg10 mi
7:30 AM30 °FClear.8 mph93%30.21 "Hg10 mi
7:00 AM30 °FClear.8 mph93%30.21 "Hg10 mi
6:30 AM30 °FClear.8 mph93%30.21 "Hg10 mi
6:00 AM30 °FClear.8 mph93%30.21 "Hg10 mi
5:30 AM30 °FClear.3 mph93%30.18 "Hg10 mi
5:00 AM30 °FClear.8 mph93%30.18 "Hg10 mi
Weather by CustomWeather, © 2014

See weather overviewHow to use our weather pages